DW9936 Weather Reports


time (UTC)temp
C
wind
direction
speed
KPH
gust
KPH
rain 1hr
cm
rain 24hr
cm
rain mn
cm
humidity
%
barometer
mb
20260510184532 18 114 0.0 0.0 0.00 0.00 0.00 62 1007.0
20260510183037 19 114 0.0 0.0 0.00 0.00 0.00 60 1007.1
20260510181528 20 114 0.0 0.0 0.00 0.00 0.00 58 1007.2
20260510180042 21 114 0.0 0.0 0.00 0.00 0.00 57 1007.2
20260510174526 21 94 0.0 4.8 0.00 0.00 0.00 56 1007.3
20260510173026 21 264 0.0 4.8 0.00 0.00 0.00 55 1007.3
20260510171524 21 128 0.0 6.4 0.00 0.00 0.00 53 1007.4
20260510170022 22 238 0.0 8.0 0.00 0.00 0.00 52 1007.7
20260510164537 22 96 0.0 12.9 0.00 0.00 0.00 52 1007.9
20260510163020 22 60 1.6 12.9 0.00 0.00 0.00 51 1007.9
20260510161518 22 142 1.6 6.4 0.00 0.00 0.00 50 1008.0
20260510160024 22 107 1.6 8.0 0.00 0.00 0.00 50 1008.2
20260510154515 22 103 1.6 6.4 0.00 0.00 0.00 50 1008.4
20260510153022 22 48 1.6 14.5 0.00 0.00 0.00 50 1008.6
20260510151511 22 67 0.0 6.4 0.00 0.00 0.00 49 1008.7
20260510150010 23 76 1.6 8.0 0.00 0.00 0.00 49 1008.9
20260510144509 23 188 0.0 4.8 0.00 0.00 0.00 50 1009.0
20260510143007 23 74 0.0 8.0 0.00 0.00 0.00 49 1009.3
20260510141505 23 70 0.0 6.4 0.00 0.00 0.00 48 1009.4
20260510140004 23 180 1.6 4.8 0.00 0.00 0.00 47 1009.6
20260510134502 23 73 0.0 12.9 0.00 0.00 0.00 49 1009.9
20260510133103 22 120 0.0 4.8 0.00 0.00 0.00 47 1010.2
20260510131604 23 168 0.0 6.4 0.00 0.00 0.00 46 1010.4
20260510130055 23 59 3.2 12.9 0.00 0.00 0.00 45 1010.6
20260510124609 23 81 1.6 9.7 0.00 0.00 0.00 45 1010.8
20260510123052 22 68 0.0 8.0 0.00 0.00 0.00 46 1011.1
20260510121548 22 100 1.6 11.3 0.00 0.00 0.00 46 1011.3
20260510120045 22 149 1.6 8.0 0.00 0.00 0.00 47 1011.5
20260510114543 22 81 0.0 6.4 0.00 0.00 0.00 47 1012.0
20260510113039 21 69 0.0 6.4 0.00 0.00 0.00 48 1012.2
20260510111558 21 133 1.6 11.3 0.00 0.00 0.00 48 1012.5
20260510110035 21 137 1.6 12.9 0.00 0.00 0.00 47 1012.6
20260510104540 21 60 1.6 11.3 0.00 0.00 0.00 49 1013.0
20260510103035 20 96 3.2 11.3 0.00 0.00 0.00 49 1013.1
20260510101528 20 47 1.6 6.4 0.00 0.00 0.00 50 1013.3
20260510100024 20 109 1.6 11.3 0.00 0.00 0.00 49 1013.5
20260510094523 20 100 0.0 8.0 0.00 0.00 0.00 50 1013.8
20260510093018 19 115 0.0 11.3 0.00 0.00 0.00 50 1013.9
20260510091534 18 233 1.6 9.7 0.00 0.00 0.00 51 1014.0
20260510090013 18 57 3.2 8.0 0.00 0.00 0.00 51 1014.3
20260510084508 18 83 3.2 8.0 0.00 0.00 0.00 51 1014.6
20260510083004 18 111 0.0 6.4 0.00 0.00 0.00 54 1014.8
20260510081602 17 74 3.2 9.7 0.00 0.00 0.00 54 1015.0
20260510074552 16 62 1.6 6.4 0.00 0.00 0.00 56 1015.4
20260510073051 16 108 1.6 6.4 0.00 0.00 0.00 57 1015.7
20260510071546 15 106 0.0 6.4 0.00 0.00 0.00 60 1015.9
20260510070046 15 103 0.0 4.8 0.00 0.00 0.00 62 1016.1
20260510064556 14 121 0.0 4.8 0.00 0.00 0.00 62 1016.2
20260510063042 13 237 0.0 3.2 0.00 0.00 0.00 64 1016.4
20260510061542 13 313 0.0 3.2 0.00 0.00 0.00 66 1016.5
20260510060032 12 167 0.0 3.2 0.00 0.00 0.00 68 1016.6
20260510054521 12 326 0.0 1.6 0.00 0.00 0.00 71 1016.7
20260510053017 11 324 0.0 1.6 0.00 0.00 0.00 74 1016.9
20260510051512 10 324 0.0 0.0 0.00 0.00 0.00 78 1016.7
20260510050008 8 324 0.0 0.0 0.00 0.00 0.00 83 1016.9
20260510044507 7 324 0.0 0.0 0.00 0.00 0.00 83 1017.0
20260510043002 7 315 0.0 0.0 0.00 0.00 0.00 83 1017.1
20260510041611 7 315 0.0 3.2 0.00 0.00 0.00 83 1017.1
20260510040059 7 315 0.0 0.0 0.00 0.00 0.00 82 1017.2
20260510034604 7 315 0.0 0.0 0.00 0.00 0.00 81 1017.1
20260510033057 7 315 0.0 1.6 0.00 0.00 0.00 81 1017.1
20260510031603 7 315 0.0 3.2 0.00 0.00 0.00 82 1017.2
20260510024554 7 310 0.0 0.0 0.00 0.00 0.00 82 1017.3
20260510023050 7 311 0.0 0.0 0.00 0.00 0.00 82 1017.2
20260510021550 7 311 0.0 0.0 0.00 0.00 0.00 82 1017.4
20260510020049 7 311 0.0 0.0 0.00 0.00 0.00 82 1017.3
20260510014547 7 311 0.0 0.0 0.00 0.00 0.00 80 1017.3
20260510013051 7 311 0.0 0.0 0.00 0.00 0.00 80 1017.4
20260510011545 8 311 0.0 0.0 0.00 0.00 0.00 79 1017.4
20260510010041 8 310 0.0 1.6 0.00 0.00 0.00 79 1017.5
20260510004540 8 347 0.0 0.0 0.00 0.00 0.00 79 1017.5
20260510003051 8 347 0.0 1.6 0.00 0.00 0.00 78 1017.6
20260510001536 8 348 0.0 1.6 0.00 0.00 0.00 77 1017.7
20260510000034 8 348 0.0 1.6 0.00 0.00 0.00 77 1017.9
20260509234548 8 107 0.0 0.0 0.00 0.00 0.00 76 1018.1
20260509233040 8 107 0.0 0.0 0.00 0.00 0.00 76 1018.5
20260509231529 9 107 0.0 0.0 0.00 0.00 0.00 75 1018.5
20260509230022 9 107 0.0 0.0 0.00 0.00 0.00 75 1018.7
20260509224520 10 107 0.0 0.0 0.00 0.00 0.00 73 1018.9
20260509223018 10 107 0.0 0.0 0.00 0.00 0.00 72 1018.9
20260509221516 10 107 0.0 0.0 0.00 0.00 0.00 71 1018.9
20260509220018 11 107 0.0 0.0 0.00 0.00 0.00 70 1018.9
20260509214510 11 107 0.0 0.0 0.00 0.00 0.00 70 1018.9
20260509213010 11 108 0.0 0.0 0.00 0.00 0.00 69 1018.9
20260509211509 11 108 0.0 0.0 0.00 0.00 0.00 68 1018.8
20260509210008 12 108 0.0 0.0 0.00 0.00 0.00 67 1018.8
20260509204508 12 107 0.0 0.0 0.00 0.00 0.00 66 1018.7
20260509203008 13 107 0.0 0.0 0.00 0.00 0.00 65 1018.6
20260509201509 13 107 0.0 0.0 0.00 0.00 0.00 63 1018.5
20260509200006 14 107 0.0 0.0 0.00 0.00 0.00 61 1018.2
20260509194509 15 108 0.0 0.0 0.00 0.00 0.00 60 1018.1
20260509193006 15 111 0.0 3.2 0.00 0.00 0.00 59 1017.9
20260509191506 15 107 0.0 3.2 0.00 0.00 0.00 58 1017.8
20260509190007 16 68 0.0 3.2 0.00 0.00 0.00 58 1017.5